AirNav   Pilot Hours Calculator
 
 446 users online  

OR90 Lafayette Airstrip
Lafayette, Oregon, USA

GOING TO LAFAYETTE?


FAA INFORMATION EFFECTIVE 07 NOVEMBER 2019

Location

FAA Identifier: OR90
Lat/Long: 45-14-39.4190N 123-07-44.3750W
45-14.656983N 123-07.739583W
45.2442831,-123.1289931
(estimated)
Elevation: 160 ft. / 49 m (estimated)
Variation: 19E (1985)
From city: 1 mile W of LAFAYETTE, OR
Time zone: UTC -8 (UTC -7 during Daylight Saving Time)
Zip code: 97128

Airport Operations

Airport use: Private use. Permission required prior to landing
Control tower: no
ARTCC: SEATTLE CENTER
FSS: MC MINNVILLE FLIGHT SERVICE STATION
Attendance: CONTINUOUS
Wind indicator: no
Segmented circle: no

Airport Communications

WX ASOS at MMV (3 nm S): 135.675 (503-434-9153)
WX ASOS at UAO (15 nm E): PHONE 503-678-3011
WX ASOS at HIO (19 nm NE): PHONE 503-640-2984

Nearby radio navigation aids

VOR radial/distance  VOR name  Freq  Var
UBGr203/9.1NEWBERG VOR/DME117.4021E
BTGr196/37.7BATTLE GROUND VORTAC116.6021E

 
NDB name  Hdg/Dist  Freq  Var  ID
BANKS173/23.435616EPND .--. -. -..
LEWISBURG354/38.322515ELWG .-.. .-- --.

Airport Services

Airframe service: NONE
Powerplant service: NONE

Runway Information

Runway 3/21

Dimensions: 2700 x 70 ft. / 823 x 21 m
Surface: turf/gravel
RUNWAY 3  RUNWAY 21
Traffic pattern: leftright

Airport Ownership and Management from official FAA records

Ownership: Privately-owned
Owner: HELEN WEEKS
11200 N HWY 99 W
MC MINNVILLE, OR 97128
Phone 503-864-2456

Airport Operational Statistics

Aircraft based on the field: 3
Single engine airplanes: 3
    

Additional Remarks

FOR CD CTC PORTLAND APCH AT 503-493-7545.

Instrument Procedures

There are no published instrument procedures at OR90.

Some nearby airports with instrument procedures:

KMMV - Mc Minnville Municipal Airport (3 nm S)
KUAO - Aurora State Airport (15 nm E)
KHIO - Portland-Hillsboro Airport (19 nm NE)
KSLE - McNary Field Airport (21 nm S)
KVUO - Pearson Field Airport (30 nm NE)
 
Loc | Ops | Rwys | IFR | FBO | Links
Com | Nav | Svcs | Stats | Notes
Area around OR90 (Lafayette Airstrip)
 
Road maps at: MapQuest Bing Google
 
Aerial photo
WARNING: Photo may not be current or correct
Aerial photo of OR90 (Lafayette Airstrip)
Photo taken 21-Jul-2002

Do you have a better or more recent aerial photo of Lafayette Airstrip that you would like to share? If so, please send us your photo.

 
Sectional chart

 
Airport distance calculator
Flying to Lafayette Airstrip? Find the distance to fly.

From to OR90

Sunrise and sunset
Times for 17-Nov-2019
 Local
(UTC-8)
 Zulu
(UTC)
Morning civil twilight06:4314:43
Sunrise07:1515:15
Sunset16:4000:40
Evening civil twilight17:1201:12

Current date and time
Zulu (UTC)  17-Nov-2019 09:37:42
Local (UTC-8)  17-Nov-2019 01:37:42
 
METAR
KMMV 
3nm S 
170853Z AUTO 00000KT 4SM BR BKN065 OVC095 09/08 A3021 RMK AO2 SLP230 T00890083 58015 $
KUAO 
15nm E 
170853Z AUTO 00000KT 5SM BR OVC060 10/08 A3023 RMK AO2 SLP236 T01000083 58015
KHIO 
20nm N 
170853Z AUTO 14003KT 4SM BR FEW065 FEW110 09/08 A3021 RMK AO2 SLP230 60000 T00940083 58017
TAF
KUAO 
15nm E 
170535Z 1706/1806 00000KT 4SM BR OVC050 TEMPO 1709/1711 1SM BR OVC003 FM171700 20003KT 6SM HZ BR OVC020 TEMPO 1719/1723 -DZ
KHIO 
20nm N 
170825Z 1708/1806 00000KT 3SM BR BKN009 OVC070 TEMPO 1709/1712 3SM BR BKN008 FM171600 21002KT 4SM -RA BR OVC007 FM172300 00000KT 4SM BR OVC015
NOTAMs
Click for the latest NOTAMs
NOTAMs are issued by the DoD/FAA and will open in a separate window not controlled by AirNav.

 

 
 

Would you like to see your business listed on this page?

 If your business provides an interesting product or service to pilots, flight crews, aircraft, or users of the Lafayette Airstrip, you should consider listing it here.  To start the listing process, click on the button below
 
Add a business
 

Other Pages about Lafayette Airstrip

Update a link
 
Copyright © AirNav, LLC. All rights reserved. Privacy Policy  Contact